Regional Weather Roundup
Issued by NWS

Home | Current Version | Previous Version | Graphics & Text | Print | Product List | Glossary On
Versions: 1 2 3 4 5 6 7 8 9 10 11 12 13 14 15 16 17 18 19 20 21 22 23 24 25 26 27 28 29 30 31 32 33 34 35 36 37 38 39 40 41 42 43 44 45 46 47 48 49 50
000
ASUS43 KMPX 181301
RWRMN
WEATHER ROUNDUP FOR MINNESOTA
NATIONAL WEATHER SERVICE TWIN CITIES/CHANHASSEN MN
700 AM CST THU DEC 18 2014


NOTE: "FAIR" INDICATES FEW OR NO CLOUDS BELOW 12,000 FEET WITH NO
SIGNIFICANT WEATHER AND/OR OBSTRUCTIONS TO VISIBILITY. N/A MEANS
CURRENT SKY AND/OR WEATHER CONDITIONS ARE NOT AVAILABLE.

MNZ060>063-068>070-181400-
   Twin Cities Metro

CITY           SKY/WX    TMP DP  RH WIND       PRES   REMARKS
TWIN CITIES    CLOUDY    14  11  87 CALM      30.30S
ST PAUL        CLOUDY    18  14  84 CALM      30.31S
CRYSTAL        CLOUDY    15  11  83 CALM      30.29S
BLAINE         CLOUDY    19  18  93 CALM      30.29S
LAKEVILLE      PTCLDY     7   3  85 CALM      30.29R
EDEN PRAIRIE   PTCLDY    10   5  80 CALM      30.29R
SOUTH ST PAUL  CLOUDY    18  15  86 CALM      30.30S
LAKE ELMO      CLOUDY    19  18  93 CALM      30.30S
$$
MNZ001>005-007-008-013>017-022>024-027-028-181400-
   Northwest Minnesota

CITY           SKY/WX    TMP DP  RH WIND       PRES   REMARKS
BEMIDJI        MOCLDY     3   0  86 CALM      30.25S
HALLOCK        PTCLDY     7   3  85 SE6       30.25S WCI  -3
ROSEAU         FAIR       5   0  78 CALM      30.25F
WARROAD        PTCLDY     5   1  85 CALM      30.27S
THIEF RVR FALL PTCLDY     9   7  92 S5        30.25S WCI   0
CROOKSTON      PTCLDY     7   3  85 SE6       30.27S WCI  -3
FOSSTON        PTCLDY     7   3  85 CALM      30.24F
DETROIT LAKES  PTCLDY     9   7  92 SE5       30.24F WCI   0
MOORHEAD       PTCLDY     9   9 100 SE3       30.26S
PARK RAPIDS    PTCLDY     2  -3  80 CALM      30.24S
MAHNOMEN       FAIR       8   5  86 SE7       30.24F WCI  -3
$$
MNZ006-009>011-018-025>026-181400-
   North Central Minnesota

CITY           SKY/WX    TMP DP  RH WIND       PRES   REMARKS
BAUDETTE       MOCLDY     4   0  83 E6        30.27S WCI  -7
FLAG ISLAND    MOCLDY     7   3  85 SE3       30.27S
INTL FALLS     PTCLDY     0  -4  83 CALM      30.29F
WASKISH        PTCLDY     3   0  85 CALM      30.27S
BIG FORK       FAIR       0  -6  78 CALM      30.28S
LONGVILLE      MOCLDY    -2  -6  84 CALM      30.28R
GRAND RAPIDS   MOCLDY     3   1  92 CALM      30.27R
CRANE LAKE     CLOUDY     3   1  92 CALM      30.33F
ORR            CLOUDY    10   9  92 CALM      30.26S
COOK           FLURRIES  10   9  92 CALM      30.28F
WALKER         FAIR       2  -1  86 E3        30.26R
$$
MNZ012-019>021-037-181400-
   Northeast Minnesota

CITY           SKY/WX    TMP DP  RH WIND       PRES   REMARKS
DULUTH         FLURRIES  19  15  84 CALM      30.26S
ELY            CLOUDY     7   5  92 CALM      30.28F
HIBBING        CLOUDY    16  11  80 CALM      30.28R
EVELETH        CLOUDY    16  12  86 CALM      30.28S
DULUTH HARBOR  CLOUDY    23  19  86 CALM      30.33S
SILVER BAY     CLOUDY    23  19  86 N3        30.28S
GRAND MARAIS     N/A     10   1  67 N7        30.37R WCI  -1
G MARAIS ARPRT MOCLDY    -8 -13  77 N5        30.27R WCI -19
$$
MNZ029>031-032-039>041-046>048-054>057-064-181400-
   West Central Minnesota

CITY           SKY/WX    TMP DP  RH WIND       PRES   REMARKS
FERGUS FALLS   MOCLDY     9   3  78 SE6       30.28S WCI  -1
WHEATON        CLOUDY     3   1  92 CALM      30.27S
MORRIS         MOCLDY     7   3  85 SE5       30.24S WCI  -2
ALEXANDRIA     MOCLDY     8   5  87 E7        30.24F WCI  -3
ELBOW LAKE     FAIR       8   6  89 E5        30.25R WCI   0
WADENA         PTCLDY     1  -2  85 CALM      30.25S
GLENWOOD       MOCLDY     7   3  85 E5        30.25S WCI  -2
APPLETON       PTCLDY     7   3  85 CALM      30.27R
BENSON         MOCLDY     9   7  92 CALM      30.26S
ORTONVILLE     MOCLDY     9   5  85 CALM      30.25S
MADISON        MOCLDY    12   9  85 CALM      30.27R
WILLMAR        FAIR      10   7  85 E5        30.28R WCI   2
$$
MNZ033>034-036-042>043-049>051-058-059-181400-
   Central Minnesota

CITY           SKY/WX    TMP DP  RH WIND       PRES   REMARKS
ST CLOUD       FAIR      10   4  76 CALM      30.28S
SAUK CENTRE    FAIR       4   1  88 CALM      30.27S
PAYNESVILLE    MOCLDY     4   2  94 CALM      30.28S
AITKIN         FLURRIES  12   7  79 CALM      30.27S
PINE RIVER     PTCLDY     1   0  92 CALM      30.30S
BRAINERD       CLOUDY     3   0  87 CALM      30.28S
STAPLES        PTCLDY     3   1  92 CALM      30.27R
LONG PRAIRIE   FAIR       5   3  92 CALM      30.26F
LITTLE FALLS   PTCLDY     5   1  85 CALM      30.29R
LITCHFIELD     PTCLDY    10   9  92 CALM      30.28S
BUFFALO        PTCLDY    10   8  89 CALM      30.31R
MAPLE LAKE     PTCLDY     9   7  92 CALM      30.30S
$$
MNZ037-044-045-052-053-181400-
   East Central Minnesota

CITY           SKY/WX    TMP DP  RH WIND       PRES   REMARKS
PRINCETON      CLOUDY    18  14  86 CALM      30.29R
MORA           CLOUDY    16  12  86 CALM      30.30S
CAMBRIDGE      CLOUDY    19  12  73 CALM      30.28R
RUSH CITY      CLOUDY    19  16  90 CALM      30.29S
MOOSE LAKE     CLOUDY    18  16  93 CALM      30.27F
HINCKLEY       CLOUDY    19  18  93 CALM      30.29S
CLOQUET        CLOUDY    18  14  86 CALM      30.28S
MCGREGOR       CLOUDY    18  14  86 CALM      30.29S
$$
MNZ071>073-080-081-089-090-097-098-181400-
   Southwest Minnesota

CITY           SKY/WX    TMP DP  RH WIND       PRES   REMARKS
MONTEVIDEO     PTCLDY     7   5  92 CALM      30.28R
GRANITE FALLS  PTCLDY     4   1  88 CALM      30.29R
CANBY          CLOUDY    13  11  93 CALM      30.26S
MARSHALL       CLOUDY     9   5  85 CALM      30.25S
REDWOOD FALLS  PTCLDY     6   2  83 E3        30.28R
OLIVIA         PTCLDY    10   9  92 SE3       30.28R
PIPESTONE      CLOUDY    16  12  86 CALM      30.20R
WINDOM         CLOUDY    12  10  92 CALM      30.24S
WORTHINGTON    CLOUDY    16  12  86 SE6       30.24R WCI   7
JACKSON        CLOUDY    18  14  86 SE5       30.25R WCI  11
TRACY          CLOUDY    12  10  92 CALM      30.25R
SLAYTON        CLOUDY    13  13  98 CALM      30.23R
$$
MNZ065>067-074>077-082>085-091>093-181400-
   South Central Minnesota

CITY           SKY/WX    TMP DP  RH WIND       PRES   REMARKS
MANKATO        MOCLDY    12   7  79 CALM      30.28S
NEW ULM        MOCLDY    14  12  92 CALM      30.29R
ST JAMES       CLOUDY    12  10  92 CALM      30.29R
FAIRMONT       CLOUDY    16  10  79 CALM      30.27R
GLENCOE        PTCLDY    11   9  92 CALM      30.29R
FARIBAULT      PTCLDY     9   7  92 CALM      30.29R
OWATONNA       PTCLDY    10   9  92 CALM      30.27S
WASECA         MOCLDY    12  10  92 E3        30.29S
ALBERT LEA     CLOUDY    16  12  86 CALM      30.27R
$$
MNZ078>079-086>088-094>096-181400-
   Southeast Minnesota

CITY           SKY/WX    TMP DP  RH WIND       PRES   REMARKS
ROCHESTER      CLOUDY    14  10  84 CALM      30.27R
RED WING       CLOUDY    16  12  86 CALM      30.29S
STANTON        MOCLDY    10   7  86 CALM      30.29R
DODGE CENTER   PTCLDY    12  10  92 CALM      30.26R
WINONA         CLOUDY    21  16  79 CALM      30.31R
AUSTIN         MOCLDY    14  12  92 CALM      30.27R
PRESTON        MOCLDY    13  10  90 CALM      30.27R
$$
ABBREVIATIONS USED IN REMARKS
   TC - TEMPERATURES IN CELSIUS
  WCI - WIND CHILL INDEX
   HX - HEAT INDEX
  VSB - VISIBILITY
$$



USA.gov is the U.S. government's official web portal to all federal, state and local government web resources and services.